Starlink 3287

operational
NORAD ID: 50172 Int'l Des: 2021-125 Owner: SPXS Country: US Constellation: starlink
LEOCIRCULAR

关于 Starlink 3287

正在加载描述...

实时位置

正在加载3D地球...

即将过境

高度历史

Altitude vs Time

uPlot chart will show altitude changes over time

两行轨道根数

1 50172U 21125S 25258.88781373 .00002493 00000-0 17464-3 0 9996
2 50172 53.2173 313.8414 0002394 88.0173 272.1094 15.08852820210240
Epoch: Sep 15, 2025 • Age: 18 hours

当前状态

高度 544.4 km
速度 7.60 km/s
星下点 52.22°N, 167.43°W
发射日期 Dec 18, 2021
运行时间 3.7 years
类型 internet

技术详情

分类 Payload
质量 290.00 kg
干质量 270.00 kg
总质量 290.00 kg
长度 0.20 m
直径 2.80 m
跨度 9.00 m
形状 Box + pan
制造商 SPXS
平台类型 Starlink
阶段状态 In Orbit
所有者/国家 SPXS/US

大型星座

Loading constellations...